sat.trackr.live / text

‹ back to catalog

STARLINK-1304

NORAD 45376 · 2020-019S

PAYLOAD ACTIVE UNKNOWN

§ Identity

Operator
Country
US
Launch date
2020-03-18
Launch site
AFETR
Launch vehicle
Mass (kg)
RCS (m²)

Purposes: comms

External: N2YO · Heavens-Above · Gunter

§ Orbital elements

Epoch: 2026-09-19T18:06:31.792032Z

Period
91.46 min
Inclination
53.0348°
Eccentricity
0.0005388
Mean motion
15.74499241 rev/d
Perigee alt
342.4 km
Apogee alt
349.7 km
Semi-major
6,724.2 km
B*
3.7421e-4
RAAN
280.2648°
Arg perigee
44.5739°
Mean anomaly
315.5712°
Rev number
36,031

§ Raw data

STARLINK-13041 45376U 20019S   26262.75453463  .00055322  00000+0  37421-3 0  99982 45376  53.0348 280.2648 0005388  44.5739 315.5712 15.74499241360319

JSON: /api/v1/satellites/45376 · /tle

For live sub-satellite position, see the globe view (requires WebGL).

§ Visibility from observer

Set your observer location to see the next 7 days of passes ≥ 10°. The values pass through the URL so the page stays shareable.

No JS? Fill the form by hand. The geolocation button needs JavaScript.